Weather in Kyshik

Russia / Khanty-Mansi Autonomous Okrug — Yugra     61°26′56″N   68°56′12″E
temp.,
°C
wind,
m/s
gust,
m/s
humid.,
%
clouds,
%
prec.,
mm/h
press.,
hPa
HPBL,
m
5 march, fri
fri523:00−9ssw2296100 0.4 99321
02:00−12ssw129695 0.0 99221
05:00−13ssw129791 0.0 99320
08:00−11ssw1297100 0.0 99223
11:00−7ssw1394100 0.1 993279
14:00−5ssw128999 0.1 993502
17:00−6s2392100 0.1 996192
20:00−10sw129699 0.0 99621
6 march, sat
sat623:00−13nnw119888 0.1 99620
02:00−15nne119976 0.0 99620
05:00−15n129886 0.1 99720
08:00−16nnw2398100 0.0 99746
11:00−12nnw2395100 0.0 996163
14:00−9nw239398 0.0 998305
17:00−11nw229699 0.1 99931
20:00−13wnw1297100 0.0 100020
7 march, sun
sun723:00−15wnw1298100 0.1 100120
02:00−14w1197100 0.1 100221
05:00−13w1297100 0.3 100430
08:00−14wnw2297100 0.1 100582
11:00−12w249492 0.2 1007329
14:00−11wsw359099 0.0 1008494
17:00−14wsw229380 0.0 100929
20:00−19ssw119851 0.0 100920
8 march, mon
mon823:00−21sw1110038 0.0 100920
02:00−22n1110054 0.0 100720
05:00−23nne1210045 0.0 100720
08:00−22n2210089 0.0 100531
11:00−18nnw249794 0.1 1004235
14:00−15nw359398 0.0 1004417
17:00−16nw239499 0.1 1005105
20:00−20w239994 0.0 100741
9 march, tue
tue923:00−23wnw239991 0.1 100823
02:00−26wnw1110095 0.0 100920
05:00−26ene119997 0.0 101019
08:00−24e2298100 0.0 101080
11:00−23e239479 0.0 1011225
14:00−20e359696 0.0 1010302
17:00−20ene379691 0.0 1008288
20:00−23ne4996100 0.0 1006253